Mount Pleasant, Falkland Islands

9:22 PM FKST on February 07, 2016 (GMT -0300)
Mount Pleasant

Weather History for 88889 - February, 2014

Change the Weather History Date:

Monday, February 24, 2014

  Actual Average Record
Temperature  
Mean Temperature 44 °F -  
Max Temperature 50 °F - - ()
Min Temperature 37 °F - - ()
Degree Days  
Heating Degree Days 22    
Moisture  
Dew Point 35 °F    
Average Humidity 69    
Maximum Humidity 87    
Minimum Humidity 49    
Precipitation  
Precipitation 0.01 in - - ()
Sea Level Pressure  
Sea Level Pressure 30.18 in    
Wind  
Wind Speed 13 mph ()    
Max Wind Speed 17 mph    
Max Gust Speed -    
Visibility 7.6 miles    
Events Rain , Hail    
T = Trace of Precipitation, MM = Missing Value Source: Averaged Metar Reports

Daily Weather History Graph

Daily Weather History Graph

Search for Another Location

Airport or City:

Trip Planner

Search our weather history database for the weather conditions in past years. The results will help you decide how hot, cold, wet, or windy it might be!

Date:

Astronomy

Feb. 24, 2014 Rise Set
Actual Time 6:12 AM FKST 8:00 PM FKST
Civil Twilight 5:37 AM FKST 8:35 PM FKST
Nautical Twilight 4:52 AM FKST 9:19 PM FKST
Astronomical Twilight 4:03 AM FKST 10:08 PM FKST
Moon 12:29 AM FKST (2/24) 4:31 PM FKST (2/24)
Length of Visible Light 14h 58m
Length of Day
13h 47m
Waning Crescent, 29% of the Moon is Illuminated
Feb 24
Waning Crescent
Mar 1
New
Mar 8
First Quarter
Mar 16
Full
Mar 23
Last Quarter

Hourly Weather History & Observations

Time (FKST) Temp. Windchill Dew Point Humidity Pressure Visibility Wind Dir Wind Speed Gust Speed Precip Events Conditions
12:50 AM 39.2 °F 30.5 °F 35.6 °F 87% 30.01 in 6.2 mi South 16.1 mph - N/A   Mostly Cloudy
1:00 AM 39 °F - 35 °F 80% 30.03 in 25 mi South 16.1 mph - -   Mostly Cloudy
1:50 AM 41.0 °F 32.8 °F 33.8 °F 76% 30.04 in 6.2 mi SSW 16.1 mph - N/A   Mostly Cloudy
2:00 AM 41 °F - 33 °F 64% 30.04 in 25 mi SSW 16.1 mph - -   Mostly Cloudy
2:50 AM 39.2 °F 31.6 °F 33.8 °F 81% 30.04 in 6.2 mi South 12.7 mph - N/A   Mostly Cloudy
3:00 AM 38 °F - 34 °F 81% 30.06 in 9 mi South 12.7 mph - - Hail Light Hail Showers
3:50 AM 39.2 °F 30.2 °F 35.6 °F 87% 30.06 in 6.2 mi SW 17.3 mph - N/A   Mostly Cloudy
4:00 AM 39 °F - 35 °F 79% 30.09 in 25 mi SW 17.3 mph - -   Mostly Cloudy
4:50 AM 41.0 °F 32.5 °F 33.8 °F 76% 30.09 in 6.2 mi SSW 17.3 mph - N/A   Mostly Cloudy
5:00 AM 41 °F - 33 °F 64% 30.10 in 25 mi SSW 17.3 mph - -   Mostly Cloudy
5:50 AM 41.0 °F 32.8 °F 32.0 °F 70% 30.09 in 6.2 mi SW 16.1 mph - N/A   Mostly Cloudy
6:50 AM 41.0 °F 33.1 °F 33.8 °F 76% 30.12 in 6.2 mi SW 15.0 mph - N/A   Mostly Cloudy
7:00 AM 40 °F - 34 °F 72% 30.15 in 22 mi SW 15.0 mph - - Rain Light Rain Showers
7:50 AM 42.8 °F 35.1 °F 35.6 °F 76% 30.15 in 6.2 mi SW 16.1 mph - N/A   Mostly Cloudy
8:00 AM 42 °F - 36 °F 70% 30.17 in 22 mi SW 16.1 mph - - Rain Light Rain Showers
8:50 AM 41.0 °F 33.1 °F 37.4 °F 87% 30.18 in 6.2 mi South 15.0 mph - N/A Rain Light Rain Showers
9:00 AM 42 °F - 37 °F 77% 30.19 in 16 mi South 15.0 mph - - Rain Light Rain Showers
9:50 AM 41.0 °F 32.8 °F 35.6 °F 81% 30.18 in 6.2 mi SSW 16.1 mph - N/A Rain Light Rain Showers
10:00 AM 42 °F - 36 °F 72% 30.21 in 11 mi SSW 16.1 mph - - Rain Light Rain Showers
10:50 AM 46.4 °F 39.8 °F 33.8 °F 62% 30.18 in 6.2 mi SSW 16.1 mph - N/A Rain Light Rain Showers
11:00 AM 46 °F - 33 °F 50% 30.21 in 14 mi SSW 16.1 mph - - Rain Light Rain Showers
11:50 AM 44.6 °F 37.8 °F 33.8 °F 66% 30.21 in 6.2 mi SSW 15.0 mph - N/A Rain Light Rain Showers
12:50 PM 44.6 °F 37.2 °F 37.4 °F 76% 30.21 in 6.2 mi SSW 17.3 mph - N/A Rain Light Rain Showers
1:00 PM 45 °F - 37 °F 66% 30.23 in 16 mi SSW 17.3 mph - - Rain Light Rain Showers
1:50 PM 48.2 °F - 33.8 °F 58% 30.21 in 6.2 mi SSW 16.1 mph - N/A   Scattered Clouds
2:00 PM 47 °F - 35 °F 51% 30.23 in 22 mi SSW 16.1 mph - - Rain Light Rain Showers
2:50 PM 46.4 °F 39.8 °F 33.8 °F 62% 30.21 in 6.2 mi SW 16.1 mph - N/A   Scattered Clouds
3:00 PM 47 °F - 34 °F 49% 30.24 in 14 mi SW 16.1 mph - - Rain Light Rain Showers
3:50 PM 48.2 °F - 35.6 °F 62% 30.21 in 6.2 mi South 16.1 mph - N/A   Mostly Cloudy
4:00 PM 47 °F - 36 °F 54% 30.24 in 22 mi South 16.1 mph - -   Mostly Cloudy
4:50 PM 48.2 °F - 35.6 °F 62% 30.21 in 6.2 mi SW 13.8 mph - N/A   Mostly Cloudy
5:50 PM 46.4 °F 40.1 °F 35.6 °F 66% 30.24 in 6.2 mi SSW 15.0 mph - N/A   Mostly Cloudy
6:50 PM 46.4 °F 41.9 °F 35.6 °F 66% 30.24 in 6.2 mi SW 9.2 mph - N/A   Mostly Cloudy
7:00 PM 46 °F - 35 °F 55% 30.26 in 31 mi SW 9.2 mph - -   Mostly Cloudy
7:50 PM 46.4 °F 41.9 °F 33.8 °F 62% 30.24 in 6.2 mi West 9.2 mph - N/A   Mostly Cloudy
8:00 PM 46 °F - 33 °F 49% 30.26 in 37 mi West 9.2 mph - -   Mostly Cloudy
8:50 PM 44.6 °F 40.7 °F 35.6 °F 71% 30.24 in 6.2 mi NW 6.9 mph - N/A   Mostly Cloudy
9:00 PM 44 °F - 36 °F 65% 30.26 in 37 mi NW 6.9 mph - -   Mostly Cloudy
9:50 PM 44.6 °F 41.4 °F 35.6 °F 71% 30.24 in 6.2 mi WNW 5.8 mph - N/A   Mostly Cloudy
10:00 PM 44 °F - 36 °F 64% 30.26 in 37 mi WNW 5.8 mph - -   Mostly Cloudy
10:50 PM 44.6 °F 39.7 °F 37.4 °F 76% 30.24 in 6.2 mi WNW 9.2 mph - N/A   Mostly Cloudy
11:00 PM 45 °F - 38 °F 67% 30.26 in 37 mi WNW 9.2 mph - -   Mostly Cloudy
11:50 PM 44.6 °F 39.7 °F 33.8 °F 66% 30.24 in 6.2 mi NW 9.2 mph - N/A   Scattered Clouds